User: anonymous   Login
Location: Buttermere
(51.3333°N, 1.5167°W)
Time: 23:06:41
(UTC+00:00)
Language:

Resurs 01 Rocket - Orbit

View from above orbital plane
View from above orbital plane
View from above satellite
View from above satellite

Ground track
Ground track

The orbit data is extracted from the following two-line orbital elements,

1 23343U 94074B   20337.39422046  .00000079  00000-0  18506-4 0  9994
2 23343  97.9771  28.7051 0006289 340.8894  29.5816 14.76849485403207
Epoch (UTC): 02 December 2020 09:27:40
Eccentricity: 0.0006289
inclination: 97.9771°
perigee height: 635 km
apogee height: 644 km
right ascension of ascending node: 28.7051°
argument of perigee: 340.8894°
revolutions per day: 14.76849485
mean anomaly at epoch: 29.5816°
orbit number at epoch: 40320

The dashed part of the orbit path shows where the satellite is in the earth's shadow,  

DLR